Hourly Weather Russkaya Buylovka

Today, 14 April, Wednesday

Time Temperature Precipitation Wind Pressure Humidity
00:00 +12°C° 0 mm 0 mps 758 mmHg 83%
01:00 +13°C° 0 mm 1 mps 757 mmHg 81%
02:00 +12°C° 0 mm 1 mps 757 mmHg 80%
03:00 +12°C° 0 mm 2 mps 757 mmHg 74%
04:00 +10°C° 0 mm 2 mps 756 mmHg 68%
05:00 +10°C° 0 mm 2 mps 756 mmHg 62%
06:00 +9°C° 0 mm 3 mps 755 mmHg 57%
07:00 +11°C° 0 mm 3 mps 755 mmHg 52%
08:00 +13°C° 0 mm 4 mps 755 mmHg 46%
09:00 +15°C° 0 mm 5 mps 755 mmHg 41%
10:00 +16°C° 0 mm 5 mps 755 mmHg 36%
11:00 +19°C° 0 mm 5 mps 755 mmHg 30%
12:00 +21°C° 0 mm 6 mps 754 mmHg 24%
13:00 +21°C° 0 mm 5 mps 754 mmHg 25%
14:00 +21°C° 0 mm 4 mps 754 mmHg 25%
15:00 +21°C° 0 mm 4 mps 753 mmHg 26%
16:00 +20°C° 0 mm 4 mps 753 mmHg 29%
17:00 +20°C° 0 mm 4 mps 753 mmHg 32%
18:00 +19°C° 0 mm 4 mps 753 mmHg 35%
19:00 +18°C° 0 mm 4 mps 753 mmHg 37%
20:00 +17°C° 0 mm 3 mps 753 mmHg 40%
21:00 +16°C° 0 mm 3 mps 753 mmHg 42%
22:00 +16°C° 0 mm 3 mps 753 mmHg 44%
23:00 +16°C° 0 mm 2 mps 752 mmHg 46%

Tomorrow, 15 April, Thursday

Time Temperature Precipitation Wind Pressure Humidity
00:00 +15°C° 0 mm 2 mps 752 mmHg 48%
01:00 +15°C° 0 mm 2 mps 752 mmHg 51%
02:00 +14°C° 0 mm 2 mps 752 mmHg 54%
03:00 +14°C° 0 mm 2 mps 752 mmHg 57%
04:00 +13°C° 0 mm 2 mps 752 mmHg 60%
05:00 +13°C° 0 mm 2 mps 752 mmHg 62%
06:00 +12°C° 0 mm 2 mps 752 mmHg 65%
07:00 +13°C° 0 mm 2 mps 752 mmHg 64%
08:00 +13°C° 0 mm 3 mps 752 mmHg 63%
09:00 +14°C° 0 mm 3 mps 752 mmHg 61%
10:00 +16°C° 0 mm 3 mps 752 mmHg 57%
11:00 +17°C° 0 mm 4 mps 752 mmHg 52%
12:00 +19°C° 0 mm 4 mps 752 mmHg 47%
13:00 +19°C° 0 mm 3 mps 752 mmHg 45%
14:00 +19°C° 0 mm 3 mps 752 mmHg 43%
15:00 +19°C° 0 mm 3 mps 752 mmHg 40%
16:00 +19°C° 0 mm 3 mps 752 mmHg 41%
17:00 +18°C° 0 mm 2 mps 752 mmHg 43%
18:00 +18°C° 0 mm 2 mps 752 mmHg 44%
19:00 +17°C° 0 mm 2 mps 752 mmHg 46%
20:00 +17°C° 0 mm 2 mps 752 mmHg 48%
21:00 +16°C° 0 mm 1 mps 752 mmHg 51%
22:00 +15°C° 0 mm 2 mps 752 mmHg 55%
23:00 +15°C° 0 mm 2 mps 752 mmHg 58%

Day after tomorrow, 16 April, Friday

Time Temperature Precipitation Wind Pressure Humidity
00:00 +13°C° 0 mm 3 mps 752 mmHg 62%
01:00 +14°C° 0 mm 2 mps 752 mmHg 66%
02:00 +13°C° 0 mm 2 mps 752 mmHg 69%
03:00 +13°C° 0 mm 2 mps 753 mmHg 73%
04:00 +12°C° 0 mm 2 mps 753 mmHg 77%
05:00 +12°C° 0 mm 2 mps 753 mmHg 80%
06:00 +10°C° 0 mm 2 mps 753 mmHg 83%
07:00 +12°C° 0 mm 2 mps 753 mmHg 76%
08:00 +13°C° 0 mm 2 mps 753 mmHg 69%
09:00 +15°C° 0 mm 2 mps 754 mmHg 61%
10:00 +16°C° 0 mm 3 mps 754 mmHg 56%
11:00 +17°C° 0 mm 3 mps 754 mmHg 51%
12:00 +18°C° 0 mm 4 mps 754 mmHg 45%
13:00 +18°C° 0 mm 4 mps 753 mmHg 41%
14:00 +19°C° 0 mm 4 mps 753 mmHg 37%
15:00 +19°C° 0 mm 4 mps 753 mmHg 33%
16:00 +19°C° 0 mm 4 mps 753 mmHg 36%
17:00 +18°C° 0 mm 3 mps 753 mmHg 38%
18:00 +18°C° 0 mm 2 mps 753 mmHg 40%
19:00 +17°C° 0 mm 2 mps 753 mmHg 44%
20:00 +15°C° 0 mm 2 mps 753 mmHg 48%
21:00 +14°C° 0 mm 1 mps 754 mmHg 53%
22:00 +13°C° 0 mm 2 mps 754 mmHg 55%
23:00 +13°C° 0 mm 2 mps 754 mmHg 57%

17 April, Saturday

Time Temperature Precipitation Wind Pressure Humidity
00:00 +13°C° 0 mm 2 mps 754 mmHg 59%
01:00 +11°C° 0.1 mm 3 mps 754 mmHg 64%
02:00 +11°C° 0.1 mm 4 mps 754 mmHg 69%
03:00 +9°C° 0.1 mm 5 mps 754 mmHg 74%
04:00 +8°C° 1.5 mm 5 mps 754 mmHg 79%
05:00 +8°C° 1.5 mm 5 mps 754 mmHg 85%
06:00 +7°C° 1.5 mm 5 mps 754 mmHg 90%
07:00 +7°C° 1.1 mm 4 mps 754 mmHg 88%
08:00 +7°C° 1.1 mm 4 mps 754 mmHg 87%
09:00 +8°C° 1.1 mm 3 mps 755 mmHg 85%
10:00 +8°C° 0.6 mm 3 mps 755 mmHg 84%
11:00 +8°C° 0.6 mm 2 mps 755 mmHg 83%
12:00 +9°C° 0.6 mm 1 mps 756 mmHg 82%
13:00 +10°C° 0.1 mm 1 mps 756 mmHg 79%
14:00 +11°C° 0.1 mm 1 mps 756 mmHg 76%
15:00 +11°C° 0.1 mm 1 mps 756 mmHg 73%
16:00 +12°C° 0.3 mm 1 mps 756 mmHg 70%
17:00 +12°C° 0.3 mm 1 mps 756 mmHg 68%
18:00 +12°C° 0.3 mm 1 mps 756 mmHg 65%
19:00 +11°C° 0.1 mm 1 mps 756 mmHg 70%
20:00 +10°C° 0.1 mm 1 mps 756 mmHg 76%
21:00 +9°C° 0.1 mm 1 mps 757 mmHg 81%
22:00 +9°C° 0 mm 1 mps 757 mmHg 81%
23:00 +9°C° 0 mm 1 mps 757 mmHg 81%

18 April, Sunday

Time Temperature Precipitation Wind Pressure Humidity
00:00 +9°C° 0 mm 1 mps 757 mmHg 82%
01:00 +9°C° 0 mm 1 mps 757 mmHg 83%
02:00 +8°C° 0 mm 1 mps 757 mmHg 84%
03:00 +8°C° 0 mm 1 mps 757 mmHg 86%
04:00 +8°C° 0 mm 1 mps 757 mmHg 86%
05:00 +8°C° 0 mm 1 mps 757 mmHg 86%
06:00 +8°C° 0 mm 1 mps 757 mmHg 86%
07:00 +9°C° 0.1 mm 1 mps 757 mmHg 81%
08:00 +10°C° 0.1 mm 1 mps 757 mmHg 75%
09:00 +12°C° 0.1 mm 1 mps 757 mmHg 69%
10:00 +13°C° 0.1 mm 1 mps 757 mmHg 62%
11:00 +14°C° 0.1 mm 1 mps 757 mmHg 55%
12:00 +15°C° 0.1 mm 1 mps 757 mmHg 48%
13:00 +15°C° 0.1 mm 2 mps 757 mmHg 49%
14:00 +15°C° 0.1 mm 2 mps 757 mmHg 49%
15:00 +15°C° 0.1 mm 2 mps 757 mmHg 50%
16:00 +13°C° 0.3 mm 3 mps 757 mmHg 56%
17:00 +13°C° 0.3 mm 4 mps 757 mmHg 62%
18:00 +12°C° 0.3 mm 5 mps 757 mmHg 67%
19:00 +10°C° 0.3 mm 5 mps 758 mmHg 72%
20:00 +10°C° 0.3 mm 4 mps 758 mmHg 77%
21:00 +8°C° 0.3 mm 4 mps 759 mmHg 82%
22:00 +8°C° 0.1 mm 4 mps 759 mmHg 82%
23:00 +8°C° 0.1 mm 4 mps 759 mmHg 83%

19 April, Monday

Time Temperature Precipitation Wind Pressure Humidity
00:00 +8°C° 0.1 mm 4 mps 759 mmHg 83%
01:00 +8°C° 0.1 mm 4 mps 759 mmHg 84%
02:00 +7°C° 0.1 mm 5 mps 759 mmHg 85%
03:00 +7°C° 0.1 mm 5 mps 759 mmHg 85%
04:00 +7°C° 0.1 mm 5 mps 759 mmHg 86%
05:00 +7°C° 0.1 mm 5 mps 759 mmHg 86%
06:00 +7°C° 0.1 mm 5 mps 759 mmHg 86%
07:00 +7°C° 0 mm 5 mps 759 mmHg 83%
08:00 +8°C° 0 mm 6 mps 760 mmHg 79%
09:00 +9°C° 0 mm 6 mps 760 mmHg 76%
10:00 +9°C° 0 mm 6 mps 761 mmHg 71%
11:00 +10°C° 0 mm 6 mps 761 mmHg 65%
12:00 +11°C° 0 mm 6 mps 761 mmHg 60%
13:00 +11°C° 0 mm 6 mps 761 mmHg 58%
14:00 +13°C° 0 mm 6 mps 761 mmHg 56%
15:00 +13°C° 0 mm 6 mps 761 mmHg 54%
16:00 +13°C° 0 mm 5 mps 761 mmHg 54%
17:00 +13°C° 0 mm 5 mps 761 mmHg 53%
18:00 +13°C° 0 mm 5 mps 761 mmHg 52%
19:00 +10°C° 0 mm 5 mps 762 mmHg 56%
20:00 +10°C° 0 mm 4 mps 763 mmHg 59%
21:00 +8°C° 0 mm 4 mps 763 mmHg 62%
22:00 +7°C° 0 mm 4 mps 763 mmHg 60%
23:00 +6°C° 0 mm 5 mps 763 mmHg 57%
Show more